COSMOS 1844

Last updated on Fri Oct 24 2025 00:02:14 GMT+0000 (Coordinated Universal Time)

1 17973U 87041A 25296.42414263 .00000013 00000+0 32094-4 0 9992 2 17973 70.8986 323.6976 0032841 231.4246 128.3933 14.14505475984177
UTC large
Height (km)
Speed (km/s)
/
Latitude / Longitude
Inclination (degrees)
Orbital Period (minutes)
Azimuth
Elevation
Range (km)
Doppler Factor

Next 0 passes for location: London (51.5072 / 0.1276)

Sorry there are no passes over London.